This is the latest recevied weather packets stored in our database for station/object KO4IDC-13. If no packets are shown the sender has not sent any weather packets the latest 1 day(s).
| Time | Temp. | Humidity | Pressure | Rain* | Wind** | Luminosity | Snow |
|---|---|---|---|---|---|---|---|
| 1778069672 | 8.89° C | 95% | 1015.6 hPa | 0 mm | - | 88 W/m² | - |
| 1778068160 | 8.33° C | 96% | 1015 hPa | 0 mm | - | 43 W/m² | - |
| 1778067857 | 8.33° C | 96% | 1014.8 hPa | 0 mm | - | 38 W/m² | - |
| 1778067556 | 8.33° C | 96% | 1015 hPa | 0 mm | - | 33 W/m² | - |
| 1778067253 | 7.78° C | 96% | 1014.8 hPa | 0 mm | - | 33 W/m² | - |
| 1778066344 | 7.78° C | 96% | 1014.8 hPa | 0 mm | - | 20 W/m² | - |
| 1778066042 | 7.78° C | 96% | 1014.3 hPa | 0 mm | - | 17 W/m² | - |
| 1778065739 | 7.78° C | 96% | 1014.4 hPa | 0 mm | - | 12 W/m² | - |
| 1778065133 | 7.78° C | 96% | 1014.5 hPa | 0 mm | - | 3 W/m² | - |
| 1778064527 | 7.78° C | 97% | 1015 hPa | 0 mm | - | 1 W/m² | - |
| 1778062407 | 7.78° C | 97% | 1013.8 hPa | 0 mm | - | 0 W/m² | - |
| 1778061198 | 7.78° C | 97% | 1013.5 hPa | 0 mm | - | 0 W/m² | - |
| 1778060594 | 7.78° C | 97% | 1013.5 hPa | 0 mm | - | 0 W/m² | - |
| 1778059384 | 7.78° C | 98% | 1013.7 hPa | 0 mm | - | 0 W/m² | - |
| 1778059081 | 7.78° C | 98% | 1013.4 hPa | 0 mm | - | 0 W/m² | - |
| 1778058173 | 7.78° C | 98% | 1013.5 hPa | 0 mm | - | 0 W/m² | - |
| 1778057566 | 7.78° C | 98% | 1012.7 hPa | 0 mm | - | 0 W/m² | - |
| 1778056959 | 7.78° C | 98% | 1013 hPa | 0 mm | - | 0 W/m² | - |
| 1778056656 | 7.78° C | 98% | 1012.7 hPa | 0 mm | - | 0 W/m² | - |
| 1778055741 | 8.33° C | 98% | 1013.3 hPa | 0 mm | - | 0 W/m² | - |
| 1778055439 | 8.33° C | 98% | 1012.9 hPa | 0 mm | - | 0 W/m² | - |
| 1778055136 | 8.33° C | 98% | 1012.7 hPa | 0 mm | - | 0 W/m² | - |
| 1778053924 | 8.89° C | 98% | 1012.7 hPa | 0 mm | - | 0 W/m² | - |
| 1778053622 | 8.89° C | 98% | 1012.9 hPa | 0 mm | - | 0 W/m² | - |
| 1778053319 | 8.89° C | 98% | 1012.5 hPa | 0 mm | - | 0 W/m² | - |
* Rain latest hour (hover to see other rain measurements)
** Current wind speed in m/s (hover to see current wind gust speed)